Weather History for KBVN - October, 2013

Change the Weather History Date:

Wednesday, October 2, 2013

  Actual Average (KOFK) Record (KOFK)
Temperature  
Mean Temperature 64 °F 57 °F  
Max Temperature 82 °F 70 °F 93 °F (1997)
Min Temperature 47 °F 44 °F 28 °F (2004)
Degree Days  
Heating Degree Days 1 9  
Month to date heating degree days 18  
Since 1 July heating degree days 160  
Cooling Degree Days 0 1  
Month to date cooling degree days 2  
Year to date cooling degree days 908  
Growing Degree Days 14 (Base 50)    
Moisture  
Dew Point 55 °F    
Average Humidity 75    
Maximum Humidity 94    
Minimum Humidity 47    
Precipitation  
Precipitation 0.22 in 0.08 in 1.17 in (2013)
Month to date precipitation 0.17  
Year to date precipitation 23.39  
Snow  
Snow 0.00 in 0.00 in - ()
Month to date snowfall 0.0  
Since 1 July snowfall T  
Snow Depth -    
Sea Level Pressure  
Sea Level Pressure 29.88 in    
Wind  
Wind Speed 4 mph (SE)    
Max Wind Speed 16 mph    
Max Gust Speed 23 mph    
Visibility 10 miles    
Events Rain , Thunderstorm    
T = Trace of Precipitation, MM = Missing Value Source: NWS Daily Summary

Daily Weather History Graph

Daily Weather History Graph

Search for Another Location

Airport or City:

Trip Planner

Search our weather history database for the weather conditions in past years. The results will help you decide how hot, cold, wet, or windy it might be!

Date:

Astronomy

Oct. 02, 2013 Rise Set
Actual Time 7:30 AM CDT 7:11 PM CDT
Civil Twilight 7:02 AM CDT 7:39 PM CDT
Nautical Twilight 6:30 AM CDT 8:11 PM CDT
Astronomical Twilight 5:57 AM CDT 8:44 PM CDT
Moon 5:03 AM CDT (10/2) 5:49 PM CDT (10/2)
Length of Visible Light 12h 36m
Length of Day
11h 41m
Waning Crescent, 6% of the Moon is Illuminated
Oct 2
Waning Crescent
Oct 4
New
Oct 11
First Quarter
Oct 18
Full
Oct 26
Last Quarter

Hourly Weather History & Observations

Time (CDT) Temp. Heat Index Dew Point Humidity Pressure Visibility Wind Dir Wind Speed Gust Speed Precip Events Conditions
12:15 AM 49.1 °F - 43.9 °F 82% 29.98 in 10.0 mi Calm Calm - N/A   Clear
12:35 AM 49.1 °F - 43.9 °F 82% 29.98 in 10.0 mi Calm Calm - N/A   Clear
12:55 AM 49.3 °F - 43.5 °F 81% 29.98 in 10.0 mi Calm Calm - N/A   Clear
1:15 AM 48.7 °F - 43.5 °F 82% 29.98 in 10.0 mi Calm Calm - N/A   Clear
1:35 AM 47.5 °F - 43.7 °F 87% 29.98 in 10.0 mi Calm Calm - N/A   Clear
1:55 AM 48.0 °F - 43.9 °F 86% 29.97 in 10.0 mi Calm Calm - N/A   Clear
2:15 AM 48.7 °F - 43.5 °F 82% 29.97 in 10.0 mi Calm Calm - N/A   Clear
2:35 AM 48.4 °F - 43.3 °F 83% 29.97 in 10.0 mi Calm Calm - N/A   Clear
2:55 AM 47.7 °F - 43.9 °F 87% 29.96 in 10.0 mi Calm Calm - N/A   Clear
3:15 AM 48.7 °F - 43.7 °F 83% 29.96 in 10.0 mi Calm Calm - N/A   Clear
3:35 AM 48.9 °F - 43.9 °F 83% 29.96 in 10.0 mi Calm Calm - N/A   Clear
3:55 AM 49.1 °F - 44.2 °F 83% 29.95 in 10.0 mi Calm Calm - N/A   Clear
4:15 AM 49.1 °F - 44.6 °F 84% 29.95 in 10.0 mi Calm Calm - N/A   Clear
4:35 AM 48.6 °F - 44.8 °F 87% 29.94 in 10.0 mi Calm Calm - N/A   Clear
4:55 AM 50.0 °F - 44.6 °F 82% 29.94 in 10.0 mi Calm Calm - N/A   Clear
5:15 AM 50.0 °F - 45.5 °F 85% 29.93 in 10.0 mi Calm Calm - N/A   Clear
5:35 AM 50.4 °F - 45.5 °F 83% 29.93 in 10.0 mi Calm Calm - N/A   Scattered Clouds
5:55 AM 50.4 °F - 45.3 °F 83% 29.92 in 10.0 mi Calm Calm - N/A   Scattered Clouds
8:35 AM 54.3 °F - 48.4 °F 80% 29.91 in 10.0 mi Calm Calm - N/A   Clear
8:55 AM 55.4 °F - 49.5 °F 80% 29.92 in 10.0 mi Calm Calm - N/A   Clear
9:15 AM 57.9 °F - 50.9 °F 77% 29.92 in 10.0 mi SE 3.5 mph - N/A   Clear
9:35 AM 61.0 °F - 53.4 °F 76% 29.92 in 10.0 mi ESE 4.6 mph - N/A   Clear
9:55 AM 62.8 °F - 54.7 °F 75% 29.92 in 7.0 mi SE 4.6 mph - N/A   Clear
10:15 AM 65.5 °F - 57.2 °F 75% 29.92 in 10.0 mi SSE 6.9 mph - N/A   Scattered Clouds
10:35 AM 67.3 °F - 58.3 °F 73% 29.91 in 10.0 mi ESE 4.6 mph - N/A   Mostly Cloudy
10:55 AM 70.2 °F - 59.2 °F 68% 29.91 in 10.0 mi South 9.2 mph - N/A   Mostly Cloudy
11:15 AM 72.5 °F - 59.5 °F 64% 29.90 in 10.0 mi SSW 11.5 mph - N/A   Mostly Cloudy
11:35 AM 75.6 °F - 60.6 °F 60% 29.89 in 10.0 mi SSE 9.2 mph - N/A   Scattered Clouds
11:55 AM 75.6 °F - 59.9 °F 58% 29.89 in 10.0 mi South 10.4 mph - N/A   Clear
12:15 PM 76.3 °F - 59.9 °F 57% 29.89 in 10.0 mi SSW 13.8 mph - N/A   Scattered Clouds
12:35 PM 76.1 °F - 59.9 °F 57% 29.89 in 10.0 mi South 12.7 mph - N/A   Mostly Cloudy
12:55 PM 76.8 °F - 59.7 °F 55% 29.89 in 10.0 mi South 9.2 mph 16.1 mph N/A   Overcast
1:15 PM 76.6 °F - 60.3 °F 57% 29.88 in 10.0 mi SSE 9.2 mph - N/A Thunderstorm Overcast
1:35 PM 78.1 °F - 59.7 °F 53% 29.87 in 10.0 mi South 10.4 mph 18.4 mph N/A   Mostly Cloudy
1:55 PM 80.1 °F 80.9 °F 60.1 °F 50% 29.86 in 10.0 mi South 16.1 mph 19.6 mph N/A Thunderstorm Mostly Cloudy
2:15 PM 81.3 °F 81.7 °F 59.5 °F 47% 29.85 in 10.0 mi South 13.8 mph 21.9 mph N/A Thunderstorm Thunderstorm
2:35 PM 80.8 °F 81.2 °F 59.0 °F 47% 29.84 in 10.0 mi South 12.7 mph 19.6 mph N/A   Mostly Cloudy
2:55 PM 80.1 °F 80.7 °F 58.8 °F 48% 29.84 in 10.0 mi South 8.1 mph - N/A   Overcast
3:15 PM 79.2 °F - 62.1 °F 56% 29.83 in 10.0 mi South 8.1 mph - N/A Thunderstorm Overcast
3:35 PM 80.2 °F 81.0 °F 59.9 °F 50% 29.82 in 10.0 mi South 9.2 mph - N/A   Mostly Cloudy
3:55 PM 79.0 °F - 59.2 °F 51% 29.82 in 10.0 mi South 9.2 mph - N/A Thunderstorm Mostly Cloudy
4:15 PM 77.9 °F - 58.8 °F 52% 29.80 in 10.0 mi South 8.1 mph - N/A Rain , Thunderstorm Rain
4:35 PM 75.9 °F - 60.1 °F 58% 29.80 in 10.0 mi SSE 10.4 mph - N/A Thunderstorm Unknown
4:55 PM 75.2 °F - 60.1 °F 59% 29.81 in 10.0 mi SSE 9.2 mph - N/A Thunderstorm Scattered Clouds
5:15 PM 70.7 °F - 62.6 °F 75% 29.79 in 10.0 mi SW 5.8 mph - 0.03 in Rain , Thunderstorm Light Thunderstorms and Rain
5:35 PM 69.8 °F - 63.7 °F 81% 29.82 in 10.0 mi North 4.6 mph - 0.03 in Thunderstorm Unknown
5:55 PM 68.4 °F - 63.9 °F 85% 29.81 in 10.0 mi North 4.6 mph - 0.03 in Rain , Thunderstorm Light Thunderstorms and Rain
6:15 PM 69.6 °F - 60.8 °F 73% 29.82 in 10.0 mi Calm Calm - N/A Thunderstorm Scattered Clouds
6:35 PM 68.5 °F - 61.5 °F 78% 29.81 in 10.0 mi NE 4.6 mph - N/A Thunderstorm Unknown
6:55 PM 66.2 °F - 60.8 °F 83% 29.81 in 10.0 mi NE 12.7 mph - N/A Thunderstorm Thunderstorm
7:15 PM 66.9 °F - 60.1 °F 79% 29.82 in 10.0 mi NNE 9.2 mph - N/A Rain , Thunderstorm Light Thunderstorms and Rain
7:35 PM 66.0 °F - 59.9 °F 81% 29.83 in 10.0 mi NW 8.1 mph - 0.01 in Rain , Thunderstorm Light Thunderstorms and Rain
7:55 PM 64.9 °F - 60.1 °F 84% 29.84 in 10.0 mi NW 4.6 mph - 0.01 in Rain , Thunderstorm Thunderstorms and Rain
8:15 PM 64.6 °F - 60.1 °F 85% 29.87 in 10.0 mi NW 10.4 mph - N/A Rain , Thunderstorm Light Thunderstorms and Rain
8:35 PM 64.2 °F - 59.5 °F 85% 29.89 in 10.0 mi North 16.1 mph 20.7 mph 0.01 in Rain , Thunderstorm Rain
8:55 PM 62.2 °F - 57.2 °F 84% 29.86 in 7.0 mi NNE 15.0 mph 23.0 mph 0.02 in Rain , Thunderstorm Thunderstorms and Rain
9:15 PM 61.9 °F - 59.5 °F 92% 29.86 in 10.0 mi ENE 10.4 mph - 0.01 in Rain , Thunderstorm Thunderstorms and Rain
9:35 PM 61.2 °F - 59.2 °F 93% 29.86 in 7.0 mi ESE 16.1 mph 21.9 mph 0.06 in Rain , Thunderstorm Thunderstorms and Rain
9:55 PM 61.5 °F - 59.9 °F 94% 29.83 in 10.0 mi East 10.4 mph 16.1 mph 0.07 in Rain , Thunderstorm Rain
10:15 PM 61.3 °F - 59.0 °F 92% 29.80 in 10.0 mi East 13.8 mph - 0.02 in Rain Rain
10:35 PM 61.0 °F - 59.0 °F 93% 29.83 in 10.0 mi North 4.6 mph - 0.03 in Rain , Thunderstorm Light Thunderstorms and Rain
10:55 PM 61.0 °F - 58.8 °F 93% 29.86 in 10.0 mi SSW 8.1 mph - 0.04 in Rain , Thunderstorm Light Thunderstorms and Rain
11:15 PM 60.8 °F - 58.5 °F 92% 29.85 in 10.0 mi ESE 5.8 mph - 0.01 in Rain Rain
11:35 PM 60.8 °F - 58.5 °F 92% 29.86 in 10.0 mi ESE 9.2 mph - 0.03 in Rain , Thunderstorm Light Thunderstorms and Rain
11:55 PM 60.3 °F - 58.6 °F 94% 29.81 in 10.0 mi East 10.4 mph 21.9 mph 0.05 in Rain , Thunderstorm Light Thunderstorms and Rain